Tracking 20041 objects as of 22-Nov-2019
Live streaming from Space Station
objects crossing your sky now

DELTA 1 DEB

Track DELTA 1 DEB now!
10-day predictions


NORAD ID: 12265
Int'l Code: 1978-026DJ
Perigee: 737.6 km
Apogee: 949.9 km
Inclination: 98.7 °
Period: 101.6 minutes
Semi major axis: 7214 km
RCS: 0.051 m2 (small)
Launch date: March 5, 1978
Source: United States (US)
Launch site: AIR FORCE WESTERN TEST RANGE (AFWTR)

Note: This is SATELLITE DEBRIS
aabbcc
Your satellite tracking list
Your tracking list is empty




NASA's NSSDC Master Catalog

Two Line Element Set (TLE):
1 12265U 78026DJ  19325.88336925 +.00000675 +00000-0 +32330-3 0  9995
2 12265 098.6860 117.3687 0147160 190.0211 325.5245 14.16677496971858
Source of the keplerian elements: AFSPC